www.pogodaiklimat.ru

Погода и климат >> Архив погоды >> Малайзия >> Куала-Тренггану


ПОГОДА в Куала-Тренггану

  • Прогноз погоды в Куала-Тренггану
  • Монитор погоды в Куала-Тренггану

АРХИВ ПОГОДЫ в Куала-Тренггану

Время (UTC), дата Ветер
(напр.,м/с)
 
Видим.   Явления Облачность Т
(С)
Тd
(С)
f
(%)
Тe
(С)
Тes
(С)
Комфортность P
(гПа)
Po
(гПа)
Тmin
(С)
Tmax
(С)
R
(мм)
R24
(мм)
S
(см)
06 10.07 В 3 18 км мгла 9/3 540 м
[Cu med, cong Ac trans Ci sp]
+32.8 +25.8 67 +48 +55 опасность
перегрева
1009.3 1008.6
12 10.07 Ю 2 14 км мгла 9/3 480 м
[Cb cap Ac trans Ci fib]
+29.3 +25.7 81 +43 +43 опасность
перегрева
1009.3 1008.6 +33.1
18 10.07 Ю 2 12 км мгла 9/1 660 м
[Sc Ac trans Ci sp]
+26.9 +24.4 86 +38 +38 очень
душно
1010.8 1010.1
00 11.07 Ю 2 18 км мгла 9/3 660 м
[Sc Ac trans Ci fib]
+26.1 +23.9 88 +36 +36 очень
душно
1011.8 1011.1 +25.2
06 11.07 ЮВ 4 18 км мгла 9/4 540 м
[Cu hum Ac trans Ci fib]
+32.2 +26.6 72 +49 +54 опасность
перегрева
1011.1 1010.4
12 11.07 штиль 0 12 км зарница {гроза} 9/4 500 м
[Cb cap Ac cuf Ci ing]
+28.0 +23.6 77 +38 +38 очень
душно
1011.3 1010.6 +32.8
18 11.07 Ю 2 12 км 9/3 660 м
[Sc Ac trans Ci fib]
+25.0 +22.7 87 +33 +33 очень
душно
1011.4 1010.7
00 12.07 Ю 2 14 км мгла 9/1 540 м
[Cu hum Ac trans Ci fib]
+25.3 +23.7 91 +34 +35 очень
душно
1012.2 1011.5 +24.2
06 12.07 ЮВ 3 18 км мгла 9/4 540 м
[Cu med, cong Ac trans Ci fib]
+32.8 +26.1 68 +49 +55 опасность
перегрева
1010.6 1009.9
12 12.07 ЮЗ 3 12 км мгла {гроза, дождь} 9/3 600 м
[Sc Ac trans Ci sp]
+25.5 +22.2 82 +33 +33 очень
душно
1011.0 1010.3 +33.5 0.2
18 12.07 штиль 0 12 км мгла 9/3 660 м
[Sc Ac As Ci sp]
+24.6 +23.1 91 +33 +33 очень
душно
1011.6 1010.9
00 13.07 Ю 2 18 км мгла {гроза, дождь} 9/1 540 м
[Cu hum Ac trans Ci fib]
+25.0 +23.5 91 +34 +34 очень
душно
1011.4 1010.7 +24.1 0.2
06 13.07 СВ 3 18 км мгла 9/1 540 м
[Cu hum Ac trans Ci sp]
+33.3 +24.3 59 +45 +53 опасность
перегрева
1009.9 1009.2
12 13.07 З 3 10 км слаб. ливневой дождь, в посл. час гроза 9/5 500 м
[Cb cap Ac cuf Ci ing]
+25.5 +23.1 87 +34 +34 очень
душно
1009.9 1009.2 +33.4 0.4
18 13.07 Ю 3 12 км мгла 9/1 660 м
[Sc Ac trans Ci fib]
+24.8 +23.5 92 +33 +33 очень
душно
1010.6 1009.9 0.0
00 14.07 ЮЗ 2 18 км мгла 9/1 600 м
[Cu hum Ac trans Ci sp]
+25.2 +24.0 93 +35 +35 очень
душно
1010.3 1009.6 +24.4 0.4
06 14.07 В 2 18 км мгла 9/3 540 м
[Cu med, cong Ac trans Ci sp]
+33.0 +24.8 62 +46 +54 опасность
перегрева
1008.5 1007.8
12 14.07 З 6 7000 м дождь 9/4 150 м
[Cb cap Ac cuf Ci sp]
+24.9 +21.3 80 +31 +31 очень
душно
1010.2 1009.5 +33.4 0.8
18 14.07 ЮЗ 3 10 км 9/3 660 м
[Sc Ac lent Ci sp]
+24.2 +23.1 94 +32 +32 очень
душно
1009.5 1008.8 1
00 15.07 ЮЗ 2 18 км 9/1 660 м
[Sc Ac lent Ci fib]
+24.8 +23.5 92 +33 +34 очень
душно
1009.4 1008.7 +23.8 2
06 15.07 В 3 18 км 8/3 540 м
[Cu med, cong Ac lent Ci fib]
+33.0 +25.4 64 +47 +55 опасность
перегрева
1007.7 1007.0
12 15.07 ЮВ 2 12 км гроза без осадков 9/5 500 м
[Cb cap Ac cuf Ci ing]
+29.6 +25.7 80 +44 +44 опасность
перегрева
1007.5 1006.8 +33.6
18 15.07 Ю 2 12 км в посл. час гроза 9/3 660 м
[Sc Ac cuf Ci sp]
+26.9 +24.7 88 +38 +38 очень
душно
1008.9 1008.2
00 16.07 Ю 2 12 км мгла 9/4 500 м
[Cb cap Ac cuf Ci ing]
+25.5 +24.5 94 +36 +36 очень
душно
1008.5 1007.8 +24.8
06 16.07 В 2 6000 м гроза без осадков 9/5 240 м
[Cb cap Ac cuf Ci ing]
+32.0 +26.2 71 +48 +54 опасность
перегрева
1007.3 1006.6
12 16.07 ЮЗ 3 8000 м гроза, ливневой дождь 9/6 300 м
[Cb cap Ac cuf]
+25.2 +23.8 92 +34 +34 очень
душно
1007.8 1007.1 +33.3 1
18 16.07 Ю 2 14 км 9/4 660 м
[Sc Ac lent Ci fib]
+24.9 +23.4 91 +33 +33 очень
душно
1009.0 1008.3 0.0
00 17.07 Ю 2 15 км мгла 9/3 600 м
[Sc Ac lent Ci sp]
+24.8 +23.3 91 +33 +34 очень
душно
1007.8 1007.1 +24.6 1

 

Местоположение метеостанции Куала-Тренггану (Малайзия): широта 5.38 долгота 103.10 высота над уровнем моря 6 м.

В архиве по умолчанию представлена погода в Куала-Тренггану за последнюю неделю. Архивные данные за месяц целиком и за предыдущие месяцы, начиная с января 2011 года, Вы можете получить, выбрав интересующий диапазон дат из раскрывающегося списка и нажав кнопку "Ввод!".


*Определитесь, кто Вы:
робот инопланетянин человек

Внимание! Время в таблицах - всемирное. Для получения местного времени необходимо прибавить поправку, которая равна 7 ч.

Смотрите также архив погоды в соседних городах и на ближайших метеорологических станциях:

Погода в Мерсинге (Малайзия) (81 км)
Погода в Кота-Бхару (Малайзия) (126 км)
Погода в Куантане (Малайзия) (178 км)
Погода в Наратхивате (Таиланд) (184 км)
Погода на Нагорье Кэмерон (Малайзия) (217 км)
Погода в Яла Агромете (Таиланд) (238 км)
Погода в Ипохе (Малайзия) (239 км)
Погода в Паттани (Таиланд) (266 км)
Погода в Ситаване (Малайзия) (296 км)
Погода на Авиабазе Баттерворт (Малайзия) (301 км)

Пояснения к столбцам:

Ветер - указаны скорость ветра в м/с - средняя за 10 мин, порывы в срок и между сроками (в фигурных скобках) и направление, откуда дует ветер: С - северный, СВ - северо-восточный, В - восточный, ЮВ - юго-восточный, Ю - южный, ЮЗ - юго-западный, З - западный, СЗ - северо-западный.
Видимость - горизонтальная дальность видимости в метрах или километрах. При видимости от 1 до 10 км при отсутствии осадков обычно наблюдается дымка, при ухудшении видимости до 1 км и менее - туман. В сухую погоду видимость может ухудшаться дымом, пылью или мглою.
Явления - указаны атмосферные явления, наблюдавшиеся в срок или в последний час перед сроком; фигурными скобками обозначены явления, наблюдавшиеся между сроками (за 1-3 часа до срока); квадратными скобками обозначены град или гололедные отложения с указанием их диаметра в мм.
Облачность - указаны через наклонную черту общая и нижняя облачность в баллах и высота нижней границы облаков в метрах; квадратными скобками обозначены формы облаков: Ci - перистые, Cs - перисто-слоистые, Cc - перисто-кучевые, Ac - высококучевые, As - высокослоистые, Sc - слоисто-кучевые, Ns - слоисто-дождевые, Cu - кучевые, Cb - кучево-дождевые. Подробнее классификацию облаков см. в Атласе облаков (PDF).
T - Температура воздуха - температура, измеренная на высоте 2 м над землей.
Td - Температура точки росы - температура, при понижении до которой содержащийся в воздухе водяной пар достигнет насыщения.
f - Относительная влажность воздуха - влажноcть воздуха, измеренная на высоте 2 м над землей.
Te - Эффективная температура - температура, которую ощущает одетый по сезону человек в тени. Характеристика душности погоды. При расчете учитывается влияние влажности воздуха и скорости ветра на теплоощущения человека.
Tes - Эффективная температура на солнце - температура, которую ощущает человек, с поправкой на солнечный нагрев. Характеристика знойности погоды. Зависит от высоты солнца над горизонтом, облачности и скорости ветра. Ночью, в пасмурную погоду, а также при ветре 12 м/с и более поправка равна нулю.
P - Атмосферное давление - приведенное к уровню моря атмосферное давление.
Po - Атмосферное давление - измеренное на уровне метеостанции атмосферное давление.
Tmin - Минимальная температура - минимум температуры воздуха на высоте 2 м над землей.
Tmax - Максимальная температура - максимум температуры воздуха на высоте 2 м над землей.
R - Количество осадков - Количество выпавших осадков за период времени, мм. При наведении курсора мыши на число - период времени, за который выпало указанное количество осадков.
R24 - Количество осадков - Количество выпавших осадков за 24 часа, мм.
S - Снежный покров - Высота снежного покрова, см. При наведении курсора мыши на число - состояние снежного покрова и степень покрытия местности в баллах.